Regional Weather Roundup
Issued by NWS Wilmington, NC

Current Version | Previous Version | Text Only | Print | Product List | Glossary On
Versions: 1 2 3 4 5 6 7 8 9 10 11 12 13 14 15 16 17 18 19 20 21 22 23 24 25 26 27 28 29 30 31 32 33 34 35 36 37 38 39 40 41 42 43 44 45 46 47 48 49 50
000
ASUS42 KILM 271613
RWRILM
RWRILM
REGIONAL HOURLY WEATHER ROUNDUP
NATIONAL WEATHER SERVICE WILMINGTON NC
1200 PM EDT THU APR 27 2017

NOTE: "FAIR" INDICATES FEW OR NO CLOUDS BELOW 12,000 FEET WITH NO
SIGNIFICANT WEATHER AND/OR OBSTRUCTIONS TO VISIBILITY.

...............WFO WILMINGTON COUNTY WARNING AREA...............

......COASTAL NC AND SC COUNTIES......

CITY           SKY/WX    TMP DP  RH WIND       PRES   REMARKS
WILMINGTON     SUNNY     81  56  42 SW10      29.94F
N MYRTLE BEACH SUNNY     77  67  71 S14       29.93F
MYRTLE BEACH   MOSUNNY   79  66  65 SW16      29.94F

......INLAND NC AND SC COUNTIES.......

CITY           SKY/WX    TMP DP  RH WIND       PRES   REMARKS
LUMBERTON      SUNNY     78  60  53 S8G17     29.90F
ELIZABETHTOWN  SUNNY     80  56  42 S10G18    29.91F
WHITEVILLE     MOSUNNY   79  59  50 SW13      29.92F
FLORENCE       MOSUNNY   79  60  52 SW15G21   29.91F
DARLINGTON     SUNNY     77  58  51 S13       29.92R
KINGSTREE      PTSUNNY   79  61  53 SE13      29.92S
HARTSVILLE     FAIR      75  59  57 SW8G17    29.91S
BENNETTSVILLE  FAIR      81  59  47 S10G17    29.90S
CONWAY         FAIR      79  61  53 S9        29.93F
GEORGETOWN     CLOUDY    77  63  61 S10G16    29.95F
MARION         FAIR      77  59  53 SW9G17    29.92S

....................REST OF NORTH CAROLINA......................

.........EASTERN NC.........

CITY           SKY/WX    TMP DP  RH WIND       PRES   REMARKS
CAPE HATTERAS  SUNNY     77  65  66 SW6       29.98S HAZE
JACKSONVILLE   MOSUNNY   81  63  54 S8        29.94F
MOREHEAD CITY  PTSUNNY   76  68  76 SW12      29.97F
KENANSVILLE    SUNNY     79  61  53 SW5       29.93F
NEW BERN       MOSUNNY   81  64  56 W8        29.96F
ELIZABETH CITY SUNNY     79  66  64 S16       29.94S

.........CENTRAL NC.........

CITY           SKY/WX    TMP DP  RH WIND       PRES   REMARKS
RALEIGH DURHAM PTSUNNY   78  61  55 SW14G22   29.90F
ROCKY MOUNT    SUNNY     77  65  66 S9        29.91F
ROANOKE RAPIDS NOT AVBL
FAYETTEVILLE   SUNNY     81  57  43 S16       29.90F
HOFFMAN        MOSUNNY   80  52  38 S17G23    29.90F

.........WESTERN NC.........

CITY           SKY/WX    TMP DP  RH WIND       PRES   REMARKS
CHARLOTTE      CLOUDY    73  55  53 S17       29.89F
GREENSBORO     CLOUDY    75  59  57 SW14      29.88S
HICKORY        NOT AVBL
BOONE          NOT AVBL
ASHEVILLE      NOT AVBL

.....................REST OF SOUTH CAROLINA.....................

.........EASTERN SC.........

CITY           SKY/WX    TMP DP  RH WIND       PRES   REMARKS
CHARLESTON     PTSUNNY   81  59  47 S18       29.94S
BEAUFORT MCAS  MOSUNNY   81  65  58 S13G25    29.92F
HILTON HEAD    MOSUNNY   79  72  78 S9        29.94F

.........CENTRAL SC.........

CITY           SKY/WX    TMP DP  RH WIND       PRES   REMARKS
COLUMBIA       CLOUDY    76  64  66 S15       29.90R
ORANGEBURG     MOSUNNY   77  62  59 SW14      29.91S
SUMTER SHAW    CLOUDY    77  61  56 S13       29.89S

.........WESTERN SC.........

CITY           SKY/WX    TMP DP  RH WIND       PRES   REMARKS
GREENVILLE     NOT AVBL
ROCK HILL      CLOUDY    72  56  57 S13       29.91F
ANDERSON       CLOUDY    66  61  84 S8        29.86F
CLEMSON        NOT AVBL
GREENWOOD      CLOUDY    72  63  73 SE9       29.89F


...................COASTAL AND OFFSHORE REPORTS..................

................LOCAL PIERS AND NC RESERVE................


STATION/POSITION TIME  SKY/WX   TEMP    WIND        PRES    VSBY
                                AIR SEA DIR/SP/G
                 (UTC)          (F)     (DEG/KT/KT) (MB)    (MI)
JOHNY MRCER PIER 1542            78 72  220/ 12/ 16 1013.2F
NC RESRV MASNBRO 1445            79     260/  5     1015.0
OCEAN CREST PIER NOT AVBL
SPRINGMAID  PIER 1548                               1013.1F


................COASTAL AND OFFSHORE BUOYS................


STATION/POSITION TIME  SKY/WX   TEMP    WIND        PRES    VSBY
                                AIR SEA DIR/SP/G
                 (UTC)          (F)     (DEG/KT/KT) (MB)    (MI)
DIMNDSHOAL 41025 1550            77 77  220/ 14/ 17 1014.9S
WVE H/P(F/S)=  6/ 9 SWL H/P/D(F/S/D)=  3/130/ 9

CAPE LOOKOUT     1600            74     230/  9/ 12 1014.7F
ONSLOW BAY 41036 NOT AVBL
ONSLOW BAY 41064 1508            72     240/  8/ 12 1015.4R
ONSLOW BAY 41159 1543               72                N/A
WVE H/P(F/S)=  4/ 9 SWL H/P/D(F/S/D)=  2/120/11

MASNBO INL 41110 1559               71                N/A
WVE H/P(F/S)=  3/ 9

WILM HARBR 41108 1547               71                N/A
WVE H/P(F/S)=  3/ 9

27SE WRITB 41037 1508            73 72  230/ 10/ 14 1014.5S
FRYING PAN 41013 1550            74 73  250/  6/  8 1014.9F
WVE H/P(F/S)=  4/ 9 SWL H/P/D(F/S/D)=  3/130/ 9

SUNST NRSH 41024 1508            71 70  210/  4/  6 1014.4F
CAPRS NRSH 41029 1508            74 72  210/ 10/ 14 1014.3R
EDISTO     41004 1550            74 73  190/  4/  6 1014.4F
WVE H/P(F/S)=  4/ 9 SWL H/P/D(F/S/D)=  3/130/ 9



..........OFFSHORE BUOYS BEYOND 100 NM OFFSHORE...........
.....IN A TRIANGLE---HAT TO BERMUDA TO BAHAMAS TO HAT.....


STATION/POSITION TIME  SKY/WX   TEMP    WIND        PRES    VSBY
                                AIR SEA DIR/SP/G
                 (UTC)          (F)     (DEG/KT/KT) (MB)    (MI)
150E HAT   41001 1600            73 71  190/ 12/ 16 1017.1
W BERMUDA  41048 1550            72 71  230/  8/ 10 1020.5R
WVE H/P(F/S)=  6/ 7 SWL H/P/D(F/S/D)=  5/160/ 7

ATLANTIC S 41049 1550            73 72  100/ 12/ 14 1022.9F
WVE H/P(F/S)=  5/ 6 SWL H/P/D(F/S/D)=  5/120/ 6

E BAHAMAS  41046 1600            77 77  100/ 12/ 16 1018.8
NE BAHAMAS 41047 1600            76 76  150/ 10/ 14 1020.0
120E CANVRL41010 1550            77 78  170/ 14/ 17 1016.6R
WVE H/P(F/S)=  5/ 9 SWL H/P/D(F/S/D)=  3/110/ 9


END



USA.gov is the U.S. government's official web portal to all federal, state and local government web resources and services.